Namest Nad Oslav, Czech Republic

7:22 PM CET on December 06, 2019 (GMT +0100)
Namest

Weather History for LKNA - August, 2019

Change the Weather History Date:

Sunday, August 11, 2019

  Actual Average (WUND) Record (WUND)
Temperature  
Mean Temperature 68 °F -  
Max Temperature 77 °F - - (-1)
Min Temperature 59 °F - - (-1)
Cooling Degree Days 3    
Growing Degree Days 18 (Base 50)    
Moisture  
Dew Point 58 °F    
Average Humidity 75    
Maximum Humidity 98    
Minimum Humidity 35    
Precipitation  
Precipitation 0.00 in - - ()
Sea Level Pressure  
Sea Level Pressure 30.09 in    
Wind  
Wind Speed 5 mph ()    
Max Wind Speed 10 mph    
Max Gust Speed -    
Visibility 14.0 miles    
Events Rain    
Averages and records for this station are not official NWS values.
T = Trace of Precipitation, MM = Missing Value Source: Averaged Metar Reports

Daily Weather History Graph

Daily Weather History Graph

Search for Another Location

Airport or City:

Astronomy

Aug. 11, 2019 Rise Set
Actual Time 5:41 AM CEST 8:19 PM CEST
Civil Twilight 5:04 AM CEST 8:55 PM CEST
Nautical Twilight 4:19 AM CEST 9:40 PM CEST
Astronomical Twilight 3:24 AM CEST 10:34 PM CEST
Moon 5:55 PM CEST (8/11) 1:37 AM CEST (8/11)
Length of Visible Light 15h 50m
Length of Day
14h 38m
Waxing Gibbous, 85% of the Moon is Illuminated
Aug 11
Waxing Gibbous
Aug 15
Full
Aug 23
Last Quarter
Aug 30
New
Sep 6
First Quarter

Hourly Weather History & Observations

Time (CEST) Temp. Dew Point Humidity Pressure Visibility Wind Dir Wind Speed Gust Speed Precip Events Conditions
12:00 AM 61 °F 61 °F 98% 30.09 in 12 mi SW 6.7 mph - -   Mostly Cloudy
12:00 AM 62.6 °F 60.8 °F 94% 30.09 in - SW 5.8 mph - N/A   Clear
1:00 AM 60 °F 60 °F 98% 30.11 in 12 mi SW 6.7 mph - -   Mostly Cloudy
1:00 AM 60.8 °F 59.0 °F 94% 30.12 in - WSW 5.8 mph - N/A   Clear
2:00 AM 61 °F 60 °F 97% 30.10 in 12 mi WNW 6.7 mph - -   Partly Cloudy
2:00 AM 60.8 °F 59.0 °F 94% 30.12 in - West 6.9 mph - N/A   Clear
3:00 AM 61 °F 60 °F 97% 30.11 in 12 mi West 8.9 mph - -   Mostly Cloudy
4:00 AM 61 °F 60 °F 97% 30.11 in 12 mi West 4.5 mph - -   Partly Cloudy
4:00 AM 60.8 °F 59.0 °F 94% 30.12 in - Variable 2.3 mph - N/A   Clear
5:00 AM 61 °F 61 °F 98% 30.11 in 12 mi WNW 8.9 mph - -   Mostly Cloudy
5:00 AM 60.8 °F 59.0 °F 94% 30.12 in - WNW 8.1 mph - N/A   Clear
6:00 AM 61 °F 60 °F 97% 30.13 in 19 mi NW 6.7 mph - -   Mostly Cloudy
6:00 AM 60.8 °F 59.0 °F 94% 30.15 in - NW 6.9 mph - N/A   Clear
7:00 AM 61 °F 60 °F 93% 30.13 in 19 mi NNW 6.7 mph - -   Partly Cloudy
7:00 AM 60.8 °F 59.0 °F 94% 30.15 in - NNW 6.9 mph - N/A   Clear
8:00 AM 64 °F 60 °F 84% 30.13 in 19 mi North 4.5 mph - -   Partly Cloudy
8:00 AM 62.6 °F 59.0 °F 88% 30.15 in - North 3.5 mph - N/A   Clear
9:00 AM 65 °F 60 °F 79% 30.13 in 16 mi North 4.5 mph - -   Mostly Cloudy
9:00 AM 66.2 °F 59.0 °F 78% 30.15 in - North 4.6 mph - N/A   Clear
10:00 AM 67 °F 61 °F 75% 30.12 in 16 mi ESE 4.5 mph - -   Scattered Clouds
10:00 AM 66.2 °F 60.8 °F 83% 30.15 in 6.2 mi East 3.5 mph - N/A   Mostly Cloudy
11:00 AM 69 °F 60 °F 64% 30.11 in 19 mi ESE 2.2 mph - -   Scattered Clouds
11:05 AM 69.8 °F 60.8 °F 73% 30.15 in 6.2 mi Variable 2.3 mph - N/A Rain Light Rain
12:00 PM 73 °F 54 °F 42% 30.09 in 19 mi SSE 4.5 mph - - Rain Light Rain
12:00 PM 71.6 °F 59.0 °F 64% 30.15 in 6.2 mi Variable 2.3 mph - N/A   Mostly Cloudy
1:00 PM 73.4 °F 53.6 °F 50% 30.12 in 6.2 mi SE 6.9 mph - N/A   Mostly Cloudy
3:00 PM 75.2 °F 55.4 °F 50% 30.09 in - Variable 5.8 mph - N/A   Clear
4:00 PM 76 °F 55 °F 38% 30.01 in 19 mi SE 6.7 mph - -   Scattered Clouds
4:00 PM 75.2 °F 55.4 °F 50% 30.06 in - Variable 5.8 mph - N/A   Clear
5:00 PM 76 °F 54 °F 35% 29.98 in 19 mi SE 6.7 mph - -  
5:00 PM 77.0 °F 53.6 °F 44% 30.04 in - SSE 8.1 mph - N/A   Clear
6:00 PM 75.2 °F 53.6 °F 47% 30.04 in - ESE 10.4 mph - N/A   Clear
7:00 PM 75.2 °F 55.4 °F 50% 30.01 in - SE 9.2 mph - N/A   Clear
8:00 PM 73.4 °F 57.2 °F 57% 30.01 in - ESE 6.9 mph - N/A   Clear
9:00 PM 71 °F 58 °F 53% 29.94 in 19 mi East 4.5 mph - -   Scattered Clouds
9:00 PM 71.6 °F 57.2 °F 60% 30.01 in - East 5.8 mph - N/A   Clear
10:00 PM 69.8 °F 57.2 °F 64% 29.98 in - East 6.9 mph - N/A   Clear